Location: Unnamed
(42.1164°N, 2.7652°E)
Time: 09:49:02
(UTC+02:00)

X-37B - Pass Details

Date: 09 August 2021
Orbit: 381 x 393 km, 45.0° (Epoch: 29 August)

Event Time Altitude Azimuth Distance (km) Brightness Sun altitude
Exits shadow 05:46:15 - 289° (WNW) 1,568 3.3 -11.3°
Reaches altitude 10° 05:46:40 10° 290° (WNW) 1,398 3.1 -11.3°
Maximum altitude 05:49:47 61° 12° (NNE) 437 1.0 -10.8°
Drops below altitude 10° 05:52:53 10° 94° (E) 1,395 4.3 -10.3°
Sets 05:54:58 0° 98° (E) 2,248 5.3 -10.0°
